This demonstration page uses our WeatherBlox Daily Observations layout. Learn more.

Hourly Observations for March 21, 2020

Temp ( °F °C ) Dew Point ( °F °C ) Humidity (%) Winds ( mph kmh ) Pressure ( in mb ) Visibility ( mi km ) Precip ( " mm )
12:15 am 00:15 Clear 22 -5.5 17 -8.1 82 82 ESE 8 13 30.64 1038 10 16.0934 0 0
12:35 am 00:35 Clear 23 -5.2 18 -8 81 81 ESE 9 15 30.63 1037 10 16.0934 0 0
12:55 am 00:55 Clear 22 -5.6 17 -8.2 82 82 ESE 9 15 30.63 1037 10 16.0934 0 0
1:15 am 01:15 Clear 22 -5.6 18 -8 83 83 ESE 9 15 30.62 1037 10 16.0934 0 0
1:35 am 01:35 Clear 22 -5.7 17 -8.3 82 82 ESE 10 17 30.62 1037 10 16.0934 0 0
1:55 am 01:55 Clear 21 -6 17 -8.5 83 83 SE 10 17 30.62 1037 10 16.0934 0 0
2:15 am 02:15 Clear 21 -6 17 -8.5 83 83 ESE 10 17 30.61 1036 10 16.0934 0 0
2:35 am 02:35 Clear 21 -6 17 -8.5 83 83 SE 10 17 30.61 1036 10 16.0934 0 0
2:55 am 02:55 Clear 21 -6.2 17 -8.5 84 84 SE 9 15 30.6 1036 10 16.0934 0 0
3:15 am 03:15 Clear 21 -6.3 17 -8.6 84 84 SE 9 15 30.59 1036 10 16.0934 0 0
3:35 am 03:35 Clear 20 -6.5 16 -9 83 83 SE 9 15 30.58 1036 10 16.0934 0 0
3:55 am 03:55 Clear 20 -6.6 16 -9 83 83 SE 9 15 30.57 1035 10 16.0934 0 0
4:15 am 04:15 Clear 20 -6.7 16 -8.8 85 85 SSE 8 13 30.56 1035 10 16.0934 0 0
4:35 am 04:35 Clear 20 -6.6 17 -8.6 86 86 SE 9 15 30.56 1035 10 16.0934 0 0
4:55 am 04:55 Clear 20 -6.7 17 -8.6 87 87 SE 9 15 30.55 1035 10 16.0934 0 0
5:15 am 05:15 Clear 20 -6.7 16 -8.7 86 86 SSE 9 15 30.55 1035 10 16.0934 0 0
5:35 am 05:35 Clear 20 -6.8 16 -8.7 87 87 SSE 8 13 30.55 1035 10 16.0934 0 0
5:55 am 05:55 Clear 20 -6.7 17 -8.6 87 87 SSE 9 15 30.55 1035 10 16.0934 0 0
6:15 am 06:15 Clear 19 -7 16 -8.7 88 88 SSE 9 15 30.55 1034 10 16.0934 0 0
6:35 am 06:35 Clear 19 -7 16 -8.7 88 88 SSE 9 15 30.55 1034 10 16.0934 0 0
6:55 am 06:55 Clear 19 -7.1 16 -9 86 86 SSE 7 11 30.55 1034 10 16.0934 0 0
7:15 am 07:15 Clear 19 -7.1 16 -9 86 86 SSE 8 13 30.56 1035 10 16.0934 0 0
7:35 am 07:35 Clear 19 -7.1 16 -9 86 86 S 7 11 30.56 1035 10 16.0934 0 0
7:55 am 07:55 Sunny 19 -7.1 16 -8.8 88 88 SSE 6 9 30.55 1034 10 16.0934 0 0
8:15 am 08:15 Sunny 20 -6.8 17 -8.6 87 87 S 9 15 30.54 1034 10 16.0934 0 0
8:35 am 08:35 Sunny 21 -6.3 17 -8.5 85 85 SSE 10 17 30.54 1034 10 16.0934 0 0
8:55 am 08:55 Sunny 22 -5.5 18 -8 83 83 S 14 22 30.53 1034 10 16.0934 0 0
9:15 am 09:15 Sunny 23 -4.9 18 -7.6 82 82 S 17 28 30.53 1034 10 16.0934 0 0
9:35 am 09:35 Sunny 24 -4.4 19 -7.1 82 82 S 14 22 30.53 1034 10 16.0934 0 0
9:55 am 09:55 Sunny 26 -3.2 20 -6.5 78 78 S 16 26 30.52 1033 10 16.0934 0 0
10:15 am 10:15 Sunny 28 -2.3 19 -7 70 70 S 18 30 30.5 1033 10 16.0934 0 0
10:35 am 10:35 Sunny 29 -1.5 20 -6.9 67 67 S 17 28 30.49 1033 10 16.0934 0 0
10:55 am 10:55 Sunny 31 -0.5 20 -6.8 63 63 S 14 22 30.48 1032 10 16.0934 0 0
11:15 am 11:15 Sunny 32 0.1 20 -6.5 62 62 S 18 30 30.47 1032 10 16.0934 0 0
11:35 am 11:35 Sunny 33 0.6 20 -6.5 59 59 S 16 26 30.45 1031 10 16.0934 0 0
11:55 am 11:55 Sunny 34 1.1 21 -6.2 59 59 S 15 24 30.44 1031 10 16.0934 0 0
12:15 pm 12:15 Sunny 36 2 21 -5.9 56 56 S 17 28 30.42 1030 10 16.0934 0 0
12:35 pm 12:35 Sunny 36 2.3 22 -5.5 57 57 S 16 26 30.4 1030 10 16.0934 0 0
12:55 pm 12:55 Sunny 38 3.2 22 -5.4 54 54 S 16 26 30.39 1029 10 16.0934 0 0
1:15 pm 13:15 Sunny 40 4.2 23 -5.2 51 51 S 21 33 30.37 1028 10 16.0934 0 0
1:35 pm 13:35 Sunny 41 5.2 24 -4.7 49 49 S 18 30 30.35 1028 10 16.0934 0 0
1:55 pm 13:55 Sunny 43 5.9 24 -4.5 48 48 S 16 26 30.32 1027 10 16.0934 0 0
2:15 pm 14:15 Sunny 44 6.5 24 -4.7 45 45 SSW 17 28 30.3 1026 10 16.0934 0 0
2:35 pm 14:35 Sunny 45 7.1 24 -4.5 44 44 S 20 31 30.28 1025 10 16.0934 0 0
2:55 pm 14:55 Sunny 46 8 25 -4.1 42 42 S 18 30 30.25 1024 10 16.0934 0 0
3:15 pm 15:15 Sunny 48 8.8 25 -3.8 41 41 SSW 17 28 30.23 1024 10 16.0934 0 0
3:35 pm 15:35 Sunny 49 9.3 26 -3.6 40 40 SSW 15 24 30.21 1023 10 16.0934 0 0
3:55 pm 15:55 Sunny 50 9.8 26 -3.1 41 41 S 17 28 30.19 1023 10 16.0934 0 0
4:15 pm 16:15 Sunny 50 10 26 -3.3 39 39 S 16 26 30.18 1022 10 16.0934 0 0
4:35 pm 16:35 Sunny 51 10.5 26 -3.1 39 39 S 18 30 30.17 1022 10 16.0934 0 0
4:55 pm 16:55 Sunny 51 10.7 27 -2.9 39 39 SSW 15 24 30.16 1021 10 16.0934 0 0
5:15 pm 17:15 Sunny 51 10.7 27 -3 38 38 S 14 22 30.16 1021 10 16.0934 0 0
5:35 pm 17:35 Sunny 51 10.6 28 -2.5 40 40 S 17 28 30.15 1021 10 16.0934 0 0
5:55 pm 17:55 Sunny 51 10.6 28 -2.3 41 41 S 14 22 30.14 1021 10 16.0934 0 0
6:15 pm 18:15 Sunny 50 10.2 28 -2 43 43 S 13 20 30.13 1020 10 16.0934 0 0
6:35 pm 18:35 Sunny 49 9.7 29 -1.8 45 45 S 12 19 30.14 1021 10 16.0934 0 0
6:55 pm 18:55 Sunny 49 9.2 29 -1.5 47 47 S 10 17 30.14 1021 10 16.0934 0 0
7:15 pm 19:15 Sunny 47 8.5 30 -1 52 52 S 7 11 30.15 1021 10 16.0934 0 0
7:35 pm 19:35 Sunny 46 7.6 30 -0.9 55 55 S 7 11 30.15 1021 10 16.0934 0 0
7:55 pm 19:55 Clear 44 6.8 31 -0.7 59 59 SSE 6 9 30.16 1021 10 16.0934 0 0
8:15 pm 20:15 Clear 43 6.1 30 -1 61 61 SSE 7 11 30.17 1022 10 16.0934 0 0
8:35 pm 20:35 Clear 42 5.3 30 -1 64 64 SSE 6 9 30.18 1022 10 16.0934 0 0
8:55 pm 20:55 Clear 41 4.8 30 -1 66 66 SSE 6 9 30.18 1022 10 16.0934 0 0
9:15 pm 21:15 Clear 41 4.9 30 -1 66 66 SSE 7 11 30.18 1022 10 16.0934 0 0
9:35 pm 21:35 Clear 41 4.8 30 -1 66 66 SSE 6 9 30.19 1022 10 16.0934 0 0
9:55 pm 21:55 Clear 40 4.5 30 -0.9 68 68 SSE 7 11 30.19 1022 10 16.0934 0 0
10:15 pm 22:15 Clear 39 3.9 30 -1.1 70 70 SSE 7 11 30.2 1023 10 16.0934 0 0
10:35 pm 22:35 Clear 39 4 30 -1.1 70 70 SSE 6 9 30.21 1023 10 16.0934 0 0
10:55 pm 22:55 Clear 39 4 31 -0.8 71 71 SSE 7 11 30.21 1023 10 16.0934 0 0
11:15 pm 23:15 Mostly Cloudy 40 4.7 30 -1 67 67 SSE 8 13 30.2 1023 10 16.0934 0 0
11:35 pm 23:35 Partly Cloudy 40 4.6 29 -1.6 64 64 SSE 10 17 30.2 1023 10 16.0934 0 0
11:55 pm 23:55 Clear 38 3.5 28 -2 68 68 SSE 8 13 30.21 1023 10 16.0934 0 0

Powered by AerisWeather